Stündliche Wetter Abay (Tyulkubasskiy rayon)

Heute, 8 März, Montag

Zeit Temperatur Niederschläge Wind Luftdruck Luftfeuchtigkeit
00:00 +5°C° 0 mm 1 m/S 706 mmHg 95%
01:00 +5°C° 0 mm 1 m/S 706 mmHg 94%
02:00 +4°C° 0 mm 2 m/S 706 mmHg 93%
03:00 +4°C° 0 mm 2 m/S 706 mmHg 92%
04:00 +4°C° 0 mm 2 m/S 706 mmHg 91%
05:00 +4°C° 0 mm 2 m/S 706 mmHg 91%
06:00 +4°C° 0 mm 2 m/S 707 mmHg 90%
07:00 +4°C° 0 mm 2 m/S 707 mmHg 90%
08:00 +3°C° 0 mm 3 m/S 707 mmHg 90%
09:00 +4°C° 0 mm 4 m/S 708 mmHg 87%
10:00 +5°C° 0 mm 5 m/S 708 mmHg 85%
11:00 +5°C° 0 mm 6 m/S 708 mmHg 84%
12:00 +7°C° 0 mm 6 m/S 708 mmHg 80%
13:00 +8°C° 0 mm 7 m/S 708 mmHg 76%
14:00 +8°C° 0 mm 7 m/S 708 mmHg 72%
15:00 +8°C° 0 mm 6 m/S 709 mmHg 73%
16:00 +8°C° 0 mm 5 m/S 709 mmHg 74%
17:00 +7°C° 0 mm 4 m/S 709 mmHg 76%
18:00 +7°C° 0 mm 3 m/S 709 mmHg 78%
19:00 +7°C° 0 mm 2 m/S 709 mmHg 80%
20:00 +7°C° 0 mm 1 m/S 709 mmHg 82%
21:00 +6°C° 0 mm 1 m/S 709 mmHg 81%
22:00 +6°C° 0 mm 1 m/S 710 mmHg 79%
23:00 +5°C° 0 mm 2 m/S 710 mmHg 78%

Morgen, 9 März, Dienstag

Zeit Temperatur Niederschläge Wind Luftdruck Luftfeuchtigkeit
00:00 +4°C° 0 mm 2 m/S 709 mmHg 77%
01:00 +4°C° 0 mm 2 m/S 709 mmHg 75%
02:00 +4°C° 0 mm 2 m/S 708 mmHg 74%
03:00 +4°C° 0 mm 2 m/S 708 mmHg 72%
04:00 +4°C° 0 mm 2 m/S 708 mmHg 70%
05:00 +4°C° 0 mm 2 m/S 708 mmHg 68%
06:00 +4°C° 0 mm 2 m/S 707 mmHg 66%
07:00 +5°C° 0 mm 2 m/S 707 mmHg 63%
08:00 +5°C° 0 mm 2 m/S 707 mmHg 60%
09:00 +7°C° 0 mm 2 m/S 706 mmHg 60%
10:00 +9°C° 0 mm 2 m/S 706 mmHg 60%
11:00 +10°C° 0 mm 2 m/S 706 mmHg 59%
12:00 +12°C° 0 mm 2 m/S 706 mmHg 57%
13:00 +13°C° 0 mm 2 m/S 705 mmHg 55%
14:00 +13°C° 0 mm 2 m/S 705 mmHg 52%
15:00 +13°C° 0 mm 2 m/S 704 mmHg 54%
16:00 +12°C° 0 mm 2 m/S 704 mmHg 55%
17:00 +10°C° 0 mm 2 m/S 703 mmHg 56%
18:00 +9°C° 0 mm 2 m/S 703 mmHg 56%
19:00 +9°C° 0 mm 2 m/S 703 mmHg 56%
20:00 +8°C° 0 mm 3 m/S 702 mmHg 56%
21:00 +8°C° 0 mm 3 m/S 702 mmHg 56%
22:00 +8°C° 0 mm 3 m/S 702 mmHg 56%
23:00 +8°C° 0 mm 3 m/S 702 mmHg 56%

übermorgen, 10 März, Mittwoch

Zeit Temperatur Niederschläge Wind Luftdruck Luftfeuchtigkeit
00:00 +8°C° 0 mm 3 m/S 701 mmHg 59%
01:00 +8°C° 0 mm 3 m/S 701 mmHg 62%
02:00 +7°C° 0 mm 4 m/S 701 mmHg 65%
03:00 +8°C° 0.7 mm 3 m/S 701 mmHg 72%
04:00 +8°C° 0.7 mm 2 m/S 701 mmHg 79%
05:00 +7°C° 0.7 mm 2 m/S 701 mmHg 87%
06:00 +8°C° 0 mm 2 m/S 701 mmHg 82%
07:00 +9°C° 0 mm 3 m/S 702 mmHg 77%
08:00 +8°C° 0 mm 4 m/S 702 mmHg 73%
09:00 +9°C° 0.2 mm 6 m/S 702 mmHg 72%
10:00 +10°C° 0.2 mm 8 m/S 703 mmHg 71%
11:00 +11°C° 0.2 mm 10 m/S 703 mmHg 70%
12:00 +11°C° 0.5 mm 10 m/S 704 mmHg 69%
13:00 +11°C° 0.5 mm 10 m/S 704 mmHg 68%
14:00 +11°C° 0.5 mm 10 m/S 704 mmHg 66%
15:00 +10°C° 0.1 mm 8 m/S 704 mmHg 69%
16:00 +8°C° 0.1 mm 7 m/S 705 mmHg 72%
17:00 +7°C° 0.1 mm 5 m/S 705 mmHg 75%
18:00 +6°C° 0.9 mm 4 m/S 705 mmHg 82%
19:00 +4°C° 0.9 mm 3 m/S 705 mmHg 89%
20:00 +3°C° 0.9 mm 2 m/S 706 mmHg 96%
21:00 +3°C° 1 mm 2 m/S 706 mmHg 96%
22:00 +3°C° 1 mm 2 m/S 706 mmHg 96%
23:00 +3°C° 1 mm 2 m/S 707 mmHg 96%

11 März, Donnerstag

Zeit Temperatur Niederschläge Wind Luftdruck Luftfeuchtigkeit
00:00 +3°C° 1.6 mm 2 m/S 707 mmHg 97%
01:00 +3°C° 1.6 mm 2 m/S 707 mmHg 97%
02:00 +2°C° 1.6 mm 2 m/S 707 mmHg 98%
03:00 +2°C° 0.8 mm 2 m/S 707 mmHg 98%
04:00 +2°C° 0.8 mm 2 m/S 707 mmHg 97%
05:00 +2°C° 0.8 mm 2 m/S 707 mmHg 97%
06:00 +2°C° 0.1 mm 2 m/S 708 mmHg 97%
07:00 +2°C° 0.1 mm 2 m/S 708 mmHg 97%
08:00 +2°C° 0.1 mm 2 m/S 709 mmHg 97%
09:00 +1°C° 0 mm 3 m/S 709 mmHg 95%
10:00 +2°C° 0 mm 3 m/S 709 mmHg 94%
11:00 +1°C° 0 mm 4 m/S 709 mmHg 92%
12:00 +3°C° 0 mm 4 m/S 709 mmHg 89%
13:00 +4°C° 0 mm 4 m/S 709 mmHg 85%
14:00 +5°C° 0 mm 4 m/S 709 mmHg 81%
15:00 +5°C° 0 mm 3 m/S 708 mmHg 78%
16:00 +5°C° 0 mm 3 m/S 708 mmHg 74%
17:00 +5°C° 0 mm 3 m/S 708 mmHg 71%
18:00 +5°C° 0 mm 2 m/S 708 mmHg 71%
19:00 +5°C° 0 mm 1 m/S 708 mmHg 72%
20:00 +4°C° 0 mm 1 m/S 708 mmHg 72%
21:00 +3°C° 0 mm 1 m/S 707 mmHg 71%
22:00 +3°C° 0 mm 1 m/S 707 mmHg 71%
23:00 +2°C° 0 mm 2 m/S 707 mmHg 70%

12 März, Freitag

Zeit Temperatur Niederschläge Wind Luftdruck Luftfeuchtigkeit
00:00 +2°C° 0 mm 2 m/S 707 mmHg 68%
01:00 +2°C° 0 mm 2 m/S 706 mmHg 66%
02:00 +2°C° 0 mm 2 m/S 706 mmHg 65%
03:00 +2°C° 0 mm 2 m/S 705 mmHg 63%
04:00 +2°C° 0 mm 2 m/S 705 mmHg 62%
05:00 +1°C° 0 mm 3 m/S 705 mmHg 60%
06:00 +2°C° 0 mm 3 m/S 704 mmHg 61%
07:00 +2°C° 0 mm 3 m/S 704 mmHg 62%
08:00 +3°C° 0 mm 3 m/S 704 mmHg 62%
09:00 +4°C° 0 mm 3 m/S 704 mmHg 62%
10:00 +7°C° 0 mm 3 m/S 703 mmHg 62%
11:00 +8°C° 0 mm 3 m/S 703 mmHg 62%
12:00 +9°C° 0 mm 3 m/S 702 mmHg 61%
13:00 +9°C° 0 mm 3 m/S 702 mmHg 60%
14:00 +10°C° 0 mm 4 m/S 701 mmHg 59%
15:00 +8°C° 0 mm 4 m/S 701 mmHg 61%
16:00 +7°C° 0 mm 4 m/S 701 mmHg 64%
17:00 +7°C° 0 mm 4 m/S 700 mmHg 66%
18:00 +6°C° 0 mm 4 m/S 700 mmHg 69%
19:00 +5°C° 0 mm 4 m/S 700 mmHg 71%
20:00 +5°C° 0 mm 4 m/S 701 mmHg 74%
21:00 +4°C° 0.3 mm 4 m/S 701 mmHg 76%
22:00 +4°C° 0.3 mm 3 m/S 701 mmHg 79%
23:00 +5°C° 0.3 mm 2 m/S 700 mmHg 82%

13 März, Samstag

Zeit Temperatur Niederschläge Wind Luftdruck Luftfeuchtigkeit
00:00 +4°C° 2.6 mm 3 m/S 700 mmHg 85%
01:00 +4°C° 2.6 mm 3 m/S 700 mmHg 89%
02:00 +4°C° 2.6 mm 3 m/S 701 mmHg 93%
03:00 +5°C° 2 mm 3 m/S 701 mmHg 92%
04:00 +5°C° 2 mm 3 m/S 701 mmHg 92%
05:00 +7°C° 2 mm 3 m/S 702 mmHg 92%
06:00 +7°C° 0.6 mm 2 m/S 702 mmHg 93%
07:00 +7°C° 0.6 mm 2 m/S 702 mmHg 94%
08:00 +8°C° 0.6 mm 1 m/S 702 mmHg 96%
09:00 +8°C° 0.8 mm 1 m/S 702 mmHg 96%
10:00 +9°C° 0.8 mm 1 m/S 702 mmHg 96%
11:00 +9°C° 0.8 mm 1 m/S 702 mmHg 97%
12:00 +8°C° 1.4 mm 2 m/S 701 mmHg 95%
13:00 +8°C° 1.4 mm 2 m/S 701 mmHg 94%
14:00 +8°C° 1.4 mm 2 m/S 700 mmHg 93%
15:00 +8°C° 1.1 mm 2 m/S 700 mmHg 93%
16:00 +8°C° 1.1 mm 2 m/S 700 mmHg 93%
17:00 +8°C° 1.1 mm 2 m/S 699 mmHg 93%
18:00 +8°C° 2.1 mm 2 m/S 699 mmHg 94%
19:00 +8°C° 2.1 mm 2 m/S 699 mmHg 94%
20:00 +8°C° 2.1 mm 2 m/S 699 mmHg 95%
21:00 +9°C° 1.5 mm 1 m/S 699 mmHg 95%
22:00 +9°C° 1.5 mm 1 m/S 699 mmHg 96%
23:00 +9°C° 1.5 mm 1 m/S 699 mmHg 96%
Mehr zeigen

Wir brauchen deine Erlaubnis

Meteoprog und unser Service Anbieter werden persönliche Daten aufbewahren, so wie Cookies, Geräte Bezeichnung oder ähnliche Technologien von deinem Gerät und Prozess, so wie Persönliche Daten Inhalte und Werbungen, genauso wie social Media und den Verkehr zu analysieren.

  • Aufbewahrung und/oder Zugang zu deiner Geräte Informationen.

    Cookies, Geräte Bezeichnung oder andere Informationen, können aufbewahrt oder Zugang zu deinem Gerät erhalten, für den Grund, der oben angegeben wird.

  • Personalisierte Werbung und Inhalte, Messungen, Einblick in das Publikum und Produkt Entwicklung.

    Werbungen und Inhalte können personalisiert werden, basierend auf ein Profil. Mehr Daten können besser personalisierte Werbungen und Inhalte hinzufügen. Werbung und Inhalte können gezeigt und gemessen werden. Einblicke über das Publikum, welche die Werbung gesehen haben und den Inhalt, können abgeleitet werden. So wie Daten können genutzt werden, um es zu verbessern oder die Benutzer Erfahrung zu verbessern das System und die Software.

Wenn du “Ich stimme zu” klickst, erlaubst du uns, die Cookies zu benutzen die Geräte Bezeichnung, den Web oder ähnliche Technologien zu benutzen. Deine Settings, können in deinem Gerät bei deinem Browser geändert werden.

Für den bestimmten Zweck, berechtigten Interessen beruhen darauf, mehr als auf den Inhalt. Du kannst mehr darüber in unseren Privaten und Cookie Politik lesen.